Regional Weather Roundup
Issued by NWS

Home | Current Version | Previous Version | Text Only | Print | Product List | Glossary Off
Versions: 1 2 3 4 5 6 7 8 9 10 11 12 13 14 15 16 17 18 19 20 21 22 23 24 25 26 27

000
ASUS45 KCYS 180910
RWRWY

WYOMING REGIONAL WEATHER ROUNDUP
NATIONAL WEATHER SERVICE CHEYENNE WY
300 AM MDT FRI AUG 18 2017

NOTE:  "FAIR" INDICATES FEW OR NO CLOUDS BELOW 12,000 FEET
WITH NO SIGNIFICANT WEATHER AND/OR OBSTRUCTIONS TO VISIBILITY.

WYZ001-181000-
YELLOWSTONE NATIONAL PARK

CITY           SKY/WX    TMP DP  RH WIND       PRES   REMARKS
LK YELLOWSTONE   N/A     38  36  92 CALM      30.36F
W YELLOWSTONE  NOT AVBL

$$
WYZ002>013-054>058-071-098>099-181000-
NORTHERN WYOMING

CITY           SKY/WX    TMP DP  RH WIND       PRES   REMARKS
JACKSON        FAIR     N/A N/A N/A N6        30.30R
CODY           FAIR      61  38  42 CALM      30.17S
GREYBULL       FAIR      56  42  59 CALM      30.08R
WORLAND        FAIR      55  41  59 S7        30.09S
SHERIDAN       FAIR      55  40  56 CALM      30.08S
BUFFALO        FAIR      60  35  39 W10       30.14F
GILLETTE       FAIR      64  44  48 SW15      30.09R
HULETT         FAIR      61  43  51 SW6       30.08S
NEWCASTLE      FAIR      50  41  71 NE6       30.10S

$$
WYZ014>020-022>026-101>103-181000-
CENTRAL WYOMING

CITY           SKY/WX    TMP DP  RH WIND       PRES   REMARKS
BIG PINEY      FAIR      41  30  65 N7        30.32S
PINEDALE       FAIR      39  32  75 NW3       30.33S
DUBOIS         FAIR      46  32  57 NW7       30.31S
LANDER           N/A    N/A N/A N/A MISG      30.19S
RIVERTON       FAIR      58  40  51 CALM      30.20R
CASPER         FAIR      48  44  86 W5        30.18S
DOUGLAS        FAIR      52  48  86 CALM      30.16S

$$
WYZ021-027>030-104>119-181000-
SOUTHERN WYOMING

CITY           SKY/WX    TMP DP  RH WIND       PRES   REMARKS
EVANSTON       FAIR      53  35  50 SE5       30.32F
KEMMERER         N/A     45  34  65 N12       30.33F
FORT BRIDGER   FAIR      58  32  38 W7        30.34S
ROCK SPRINGS   FAIR      58  31  35 W9        30.29S
RAWLINS        FAIR      49  34  56 VRB5      30.26S
SARATOGA       FAIR      48  39  71 S9        30.28S
LARAMIE        FAIR      50  37  61 VRB7      30.27R
CHEYENNE       FAIR      54  44  69 NW3       30.22S
TORRINGTON     FAIR      55  50  83 CALM      30.11R
PINE BLUFFS    FAIR      50  45  81 CALM      30.18S

$$




USA.gov is the U.S. government's official web portal to all federal, state and local government web resources and services.